EAG1255 SBFL-SBGR

Flight info

Callsign EAG1255
Flight time 0h 58m
Altitude 33000
Route ILVOR UZ69 XONUG UZ121 BUXUK
Aircraft B737/M-SDE2E3FGHIRWXY/LB1

Departure

Time 2026-04-26 13:55
Airport Hercílio Luz International Airport (SBFL)

Arrival

Time 2026-04-26 14:53
Airport São Paulo/Guarulhos–Governor André Franco Montoro International Airport (SBGR)
Time Latitude Longitude Altitude Speed Heading
2026-04-26 13:32 -27.67272 -48.54580 30 ft 0 kts 210°
2026-04-26 13:45 -27.67254 -48.54568 28 ft 4 kts 204°
2026-04-26 13:45 -27.67229 -48.54560 31 ft 4 kts 167°
2026-04-26 13:46 -27.67217 -48.54568 26 ft 0 kts 121°
2026-04-26 13:47 -27.67217 -48.54567 31 ft 1 kts 121°
2026-04-26 13:48 -27.67237 -48.54529 30 ft 8 kts 121°
2026-04-26 13:48 -27.67274 -48.54461 29 ft 12 kts 121°
2026-04-26 13:48 -27.67296 -48.54389 29 ft 8 kts 62°
2026-04-26 13:48 -27.67254 -48.54355 26 ft 7 kts 32°
2026-04-26 13:49 -27.67211 -48.54315 27 ft 10 kts 66°
2026-04-26 13:49 -27.67237 -48.54242 29 ft 10 kts 121°
2026-04-26 13:49 -27.67274 -48.54173 26 ft 10 kts 121°
2026-04-26 13:49 -27.67315 -48.54096 30 ft 13 kts 121°
2026-04-26 13:50 -27.67366 -48.54003 28 ft 16 kts 121°
2026-04-26 13:50 -27.67426 -48.53892 28 ft 17 kts 121°
2026-04-26 13:50 -27.67486 -48.53781 27 ft 16 kts 122°
2026-04-26 13:50 -27.67545 -48.53677 26 ft 16 kts 122°
2026-04-26 13:51 -27.67602 -48.53576 26 ft 15 kts 122°
2026-04-26 13:51 -27.67656 -48.53479 26 ft 14 kts 122°
2026-04-26 13:51 -27.67708 -48.53387 31 ft 14 kts 123°
2026-04-26 13:51 -27.67758 -48.53298 27 ft 13 kts 123°
2026-04-26 13:52 -27.67805 -48.53213 28 ft 13 kts 115°
2026-04-26 13:52 -27.67799 -48.53156 28 ft 6 kts 50°
2026-04-26 13:52 -27.67775 -48.53132 28 ft 0 kts 38°
2026-04-26 13:53 -27.67759 -48.53118 27 ft 6 kts 37°
2026-04-26 13:53 -27.67713 -48.53076 29 ft 10 kts 44°
2026-04-26 13:54 -27.67672 -48.53078 26 ft 6 kts 305°
2026-04-26 13:54 -27.67665 -48.53091 26 ft 12 kts 302°
2026-04-26 13:54 -27.67427 -48.53534 27 ft 117 kts 301°
2026-04-26 13:55 -27.66230 -48.55815 1730 ft 169 kts 301°
2026-04-26 13:55 -27.65807 -48.56544 2817 ft 161 kts 315°
2026-04-26 13:55 -27.63143 -48.56599 4636 ft 212 kts 19°
2026-04-26 13:56 -27.61698 -48.55918 4860 ft 236 kts 20°
2026-04-26 13:56 -27.60122 -48.55149 5236 ft 254 kts 21°
2026-04-26 13:56 -27.58490 -48.54350 5843 ft 254 kts 20°
2026-04-26 13:56 -27.56849 -48.53555 5975 ft 256 kts 19°
2026-04-26 13:57 -27.55215 -48.52771 5990 ft 255 kts 19°
2026-04-26 13:57 -27.53594 -48.51998 6001 ft 257 kts 19°
2026-04-26 13:57 -27.51833 -48.51570 6164 ft 266 kts 356°
2026-04-26 13:57 -27.49973 -48.51699 7024 ft 268 kts 353°
2026-04-26 13:58 -27.48102 -48.51848 7945 ft 271 kts 353°
2026-04-26 13:58 -27.46209 -48.51993 8829 ft 275 kts 352°
2026-04-26 13:58 -27.44288 -48.52133 9747 ft 279 kts 352°
2026-04-26 13:58 -27.42321 -48.52271 10494 ft 291 kts 351°
2026-04-26 13:59 -27.40207 -48.52419 10758 ft 318 kts 351°
2026-04-26 13:59 -27.37909 -48.52571 11008 ft 342 kts 351°
2026-04-26 13:59 -27.35485 -48.52728 11586 ft 353 kts 351°
2026-04-26 14:00 -27.27987 -48.53175 13983 ft 365 kts 350°
2026-04-26 14:00 -27.25432 -48.53327 14722 ft 370 kts 350°
2026-04-26 14:00 -27.23722 -48.53428 15216 ft 373 kts 351°
2026-04-26 14:01 -27.20226 -48.53636 16221 ft 378 kts 351°
2026-04-26 14:01 -27.17612 -48.53791 16914 ft 383 kts 351°
2026-04-26 14:01 -27.14925 -48.53951 17572 ft 388 kts 351°
2026-04-26 14:01 -27.12215 -48.54112 18253 ft 391 kts 351°
2026-04-26 14:02 -27.09489 -48.54274 18909 ft 395 kts 351°
2026-04-26 14:02 -27.06733 -48.54437 19534 ft 398 kts 350°
2026-04-26 14:02 -27.03952 -48.54602 20117 ft 402 kts 350°
2026-04-26 14:02 -27.01140 -48.54769 20676 ft 406 kts 350°
2026-04-26 14:03 -26.98304 -48.54937 21197 ft 410 kts 350°
2026-04-26 14:03 -26.95441 -48.55107 21690 ft 414 kts 350°
2026-04-26 14:03 -26.92553 -48.55278 22202 ft 417 kts 350°
2026-04-26 14:03 -26.89643 -48.55450 22685 ft 420 kts 350°
2026-04-26 14:04 -26.86710 -48.55624 23103 ft 424 kts 350°
2026-04-26 14:04 -26.83755 -48.55798 23518 ft 427 kts 349°
2026-04-26 14:04 -26.80779 -48.55974 23933 ft 430 kts 349°
2026-04-26 14:04 -26.77780 -48.56151 24345 ft 432 kts 349°
2026-04-26 14:05 -26.74765 -48.56328 24737 ft 435 kts 349°
2026-04-26 14:05 -26.71738 -48.56506 25155 ft 436 kts 349°
2026-04-26 14:05 -26.68744 -48.56682 25547 ft 438 kts 349°
2026-04-26 14:05 -26.65694 -48.56862 25887 ft 440 kts 349°
2026-04-26 14:06 -26.62621 -48.57043 26239 ft 442 kts 349°
2026-04-26 14:06 -26.59543 -48.57224 26608 ft 443 kts 349°
2026-04-26 14:06 -26.56461 -48.57405 26933 ft 445 kts 349°
2026-04-26 14:06 -26.53347 -48.57589 27238 ft 447 kts 349°
2026-04-26 14:07 -26.50231 -48.57772 27534 ft 449 kts 349°
2026-04-26 14:07 -26.47105 -48.57954 27866 ft 450 kts 349°
2026-04-26 14:07 -26.44011 -48.58136 28161 ft 452 kts 348°
2026-04-26 14:07 -26.40856 -48.58274 28446 ft 457 kts 352°
2026-04-26 14:08 -26.37641 -48.58029 28715 ft 466 kts 358°
2026-04-26 14:08 -26.34407 -48.57587 28991 ft 469 kts 359°
2026-04-26 14:08 -26.31163 -48.57141 29256 ft 470 kts 358°
2026-04-26 14:08 -26.27914 -48.56736 29600 ft 469 kts 357°
2026-04-26 14:09 -26.24680 -48.56363 30027 ft 466 kts 357°
2026-04-26 14:09 -26.21463 -48.56003 30461 ft 464 kts 356°
2026-04-26 14:09 -26.18249 -48.55648 30845 ft 463 kts 356°
2026-04-26 14:09 -26.15045 -48.55295 31223 ft 463 kts 356°
2026-04-26 14:10 -26.11850 -48.54941 31642 ft 461 kts 356°
2026-04-26 14:10 -26.08659 -48.54584 32063 ft 460 kts 356°
2026-04-26 14:10 -26.05478 -48.54227 32466 ft 459 kts 356°
2026-04-26 14:10 -26.02339 -48.53875 32870 ft 458 kts 356°
2026-04-26 14:11 -25.95923 -48.53162 32955 ft 467 kts 357°
2026-04-26 14:11 -25.89400 -48.52434 32971 ft 474 kts 357°
2026-04-26 14:12 -25.82813 -48.51693 32975 ft 477 kts 357°
2026-04-26 14:12 -25.76237 -48.50961 32971 ft 478 kts 357°
2026-04-26 14:13 -25.66303 -48.49865 32988 ft 478 kts 357°
2026-04-26 14:14 -25.59682 -48.49135 33001 ft 478 kts 357°
2026-04-26 14:14 -25.53082 -48.48411 32999 ft 477 kts 358°
2026-04-26 14:15 -25.46475 -48.47680 33016 ft 476 kts 358°
2026-04-26 14:15 -25.39888 -48.46954 33061 ft 475 kts 358°
2026-04-26 14:16 -25.33310 -48.46206 33058 ft 475 kts 358°
2026-04-26 14:16 -25.26764 -48.45457 33069 ft 475 kts 358°
2026-04-26 14:17 -25.20171 -48.44706 33060 ft 476 kts 358°
2026-04-26 14:17 -25.13570 -48.43947 33057 ft 478 kts 360°
2026-04-26 14:17 -25.10277 -48.43226 33053 ft 489 kts
2026-04-26 14:18 -25.07019 -48.42100 33062 ft 490 kts 10°
2026-04-26 14:18 -25.00543 -48.39673 33063 ft 492 kts 11°
2026-04-26 14:19 -24.94058 -48.37245 33057 ft 492 kts 11°
2026-04-26 14:19 -24.87558 -48.34873 33057 ft 492 kts 11°
2026-04-26 14:20 -24.81078 -48.32536 33070 ft 492 kts 11°
2026-04-26 14:20 -24.74568 -48.30192 33072 ft 492 kts 11°
2026-04-26 14:21 -24.68065 -48.27849 33068 ft 491 kts 11°
2026-04-26 14:21 -24.61559 -48.25506 33067 ft 491 kts 11°
2026-04-26 14:22 -24.55069 -48.23171 33061 ft 491 kts 11°
2026-04-26 14:22 -24.48578 -48.20841 33061 ft 491 kts 11°
2026-04-26 14:23 -24.42085 -48.18512 33056 ft 491 kts 11°
2026-04-26 14:23 -24.35628 -48.16188 33065 ft 492 kts 13°
2026-04-26 14:24 -24.29375 -48.12888 33073 ft 502 kts 22°
2026-04-26 14:24 -24.23267 -48.09180 33065 ft 502 kts 22°
2026-04-26 14:25 -24.17140 -48.05497 33062 ft 503 kts 22°
2026-04-26 14:25 -24.10989 -48.01866 33063 ft 501 kts 22°
2026-04-26 14:26 -24.04843 -47.98262 33057 ft 501 kts 22°
2026-04-26 14:26 -23.98699 -47.94660 33066 ft 501 kts 22°
2026-04-26 14:27 -23.92559 -47.91059 33062 ft 501 kts 22°
2026-04-26 14:27 -23.86457 -47.87484 33036 ft 500 kts 22°
2026-04-26 14:27 -23.83376 -47.85681 32269 ft 502 kts 22°
2026-04-26 14:28 -23.80302 -47.83883 31292 ft 502 kts 22°
2026-04-26 14:28 -23.77227 -47.82072 30422 ft 501 kts 24°
2026-04-26 14:28 -23.74411 -47.79809 29710 ft 507 kts 38°
2026-04-26 14:28 -23.72752 -47.78030 29280 ft 503 kts 40°
2026-04-26 14:29 -23.69503 -47.74397 28321 ft 496 kts 40°
2026-04-26 14:29 -23.67902 -47.72645 27856 ft 491 kts 40°
2026-04-26 14:29 -23.65468 -47.70050 27126 ft 486 kts 39°
2026-04-26 14:29 -23.63055 -47.67522 26709 ft 474 kts 39°
2026-04-26 14:30 -23.60709 -47.65063 26350 ft 464 kts 39°
2026-04-26 14:30 -23.58402 -47.62645 26005 ft 457 kts 39°
2026-04-26 14:30 -23.56096 -47.60230 25685 ft 461 kts 39°
2026-04-26 14:30 -23.53771 -47.57797 25358 ft 464 kts 39°
2026-04-26 14:31 -23.51456 -47.55369 25001 ft 459 kts 39°
2026-04-26 14:31 -23.49167 -47.52967 24659 ft 455 kts 39°
2026-04-26 14:31 -23.46895 -47.50583 24312 ft 451 kts 39°
2026-04-26 14:31 -23.44643 -47.48224 23987 ft 448 kts 39°
2026-04-26 14:32 -23.42431 -47.45906 23650 ft 445 kts 40°
2026-04-26 14:32 -23.40202 -47.43574 23314 ft 443 kts 40°
2026-04-26 14:32 -23.37979 -47.41250 22986 ft 441 kts 40°
2026-04-26 14:32 -23.35773 -47.38943 22715 ft 439 kts 40°
2026-04-26 14:33 -23.33577 -47.36648 22426 ft 436 kts 40°
2026-04-26 14:33 -23.31392 -47.34364 22147 ft 434 kts 40°
2026-04-26 14:33 -23.29201 -47.32076 21874 ft 437 kts 40°
2026-04-26 14:33 -23.27007 -47.29787 21602 ft 437 kts 40°
2026-04-26 14:34 -23.24824 -47.27509 21325 ft 434 kts 40°
2026-04-26 14:34 -23.22653 -47.25243 21063 ft 432 kts 40°
2026-04-26 14:34 -23.20514 -47.23012 20784 ft 430 kts 41°
2026-04-26 14:34 -23.18357 -47.20763 20516 ft 429 kts 41°
2026-04-26 14:35 -23.16206 -47.18522 20247 ft 428 kts 41°
2026-04-26 14:35 -23.14065 -47.16282 19981 ft 427 kts 42°
2026-04-26 14:35 -23.12021 -47.13939 19712 ft 427 kts 45°
2026-04-26 14:35 -23.10037 -47.11544 19452 ft 426 kts 45°
2026-04-26 14:36 -23.08051 -47.09160 19171 ft 425 kts 45°
2026-04-26 14:36 -23.06050 -47.06786 18687 ft 428 kts 45°
2026-04-26 14:36 -23.04026 -47.04404 18060 ft 428 kts 45°
2026-04-26 14:36 -23.02020 -47.02048 17442 ft 422 kts 45°
2026-04-26 14:37 -23.00043 -46.99723 16835 ft 416 kts 45°
2026-04-26 14:37 -22.98092 -46.97430 16236 ft 409 kts 45°
2026-04-26 14:37 -22.96171 -46.95173 15684 ft 403 kts 45°
2026-04-26 14:37 -22.94287 -46.92959 15131 ft 392 kts 45°
2026-04-26 14:38 -22.92477 -46.90833 14631 ft 376 kts 45°
2026-04-26 14:38 -22.90738 -46.88791 14206 ft 359 kts 45°
2026-04-26 14:38 -22.89254 -46.86727 14058 ft 339 kts 64°
2026-04-26 14:38 -22.88796 -46.84334 14081 ft 329 kts 93°
2026-04-26 14:39 -22.89362 -46.81931 13842 ft 331 kts 120°
2026-04-26 14:39 -22.90776 -46.80014 13608 ft 323 kts 141°
2026-04-26 14:39 -22.92521 -46.78494 13395 ft 321 kts 144°
2026-04-26 14:39 -22.94307 -46.77036 13157 ft 321 kts 145°
2026-04-26 14:40 -22.96096 -46.75591 12927 ft 321 kts 144°
2026-04-26 14:40 -22.97677 -46.73897 12596 ft 321 kts 128°
2026-04-26 14:40 -22.98952 -46.71964 12331 ft 317 kts 126°
2026-04-26 14:40 -23.00201 -46.69997 12079 ft 315 kts 125°
2026-04-26 14:41 -23.01441 -46.68039 11844 ft 314 kts 125°
2026-04-26 14:41 -23.02687 -46.66085 11626 ft 314 kts 125°
2026-04-26 14:41 -23.03937 -46.64141 11380 ft 314 kts 126°
2026-04-26 14:41 -23.05195 -46.62195 11160 ft 314 kts 126°
2026-04-26 14:42 -23.06455 -46.60253 10924 ft 314 kts 126°
2026-04-26 14:42 -23.07716 -46.58312 10713 ft 313 kts 126°
2026-04-26 14:42 -23.08979 -46.56376 10474 ft 313 kts 126°
2026-04-26 14:42 -23.10223 -46.54467 10234 ft 312 kts 126°
2026-04-26 14:43 -23.11450 -46.52583 9997 ft 299 kts 126°
2026-04-26 14:43 -23.12632 -46.50770 9780 ft 289 kts 126°
2026-04-26 14:43 -23.13789 -46.48995 9584 ft 288 kts 126°
2026-04-26 14:43 -23.14961 -46.47200 9380 ft 294 kts 126°
2026-04-26 14:44 -23.16152 -46.45372 9157 ft 296 kts 125°
2026-04-26 14:44 -23.17339 -46.43548 8962 ft 296 kts 126°
2026-04-26 14:44 -23.18528 -46.41720 8715 ft 296 kts 125°
2026-04-26 14:44 -23.19711 -46.39898 8501 ft 294 kts 125°
2026-04-26 14:45 -23.20897 -46.38075 8216 ft 295 kts 125°
2026-04-26 14:45 -23.21695 -46.36850 8077 ft 292 kts 125°
2026-04-26 14:45 -23.23232 -46.34476 7809 ft 288 kts 125°
2026-04-26 14:45 -23.24394 -46.32685 7567 ft 291 kts 125°
2026-04-26 14:46 -23.25568 -46.30885 7350 ft 293 kts 125°
2026-04-26 14:46 -23.26737 -46.29087 7131 ft 288 kts 125°
2026-04-26 14:46 -23.27885 -46.27323 6928 ft 284 kts 125°
2026-04-26 14:46 -23.29023 -46.25572 6712 ft 282 kts 127°
2026-04-26 14:47 -23.30478 -46.24177 6489 ft 280 kts 155°
2026-04-26 14:47 -23.32273 -46.23489 6351 ft 276 kts 166°
2026-04-26 14:47 -23.34149 -46.22979 6145 ft 279 kts 170°
2026-04-26 14:47 -23.36061 -46.22566 5896 ft 279 kts 172°
2026-04-26 14:48 -23.37914 -46.22460 5697 ft 256 kts 197°
2026-04-26 14:48 -23.39345 -46.23326 5566 ft 223 kts 234°
2026-04-26 14:48 -23.39777 -46.24785 5392 ft 195 kts 281°
2026-04-26 14:48 -23.39513 -46.26144 5189 ft 180 kts 267°
2026-04-26 14:49 -23.39703 -46.27463 5097 ft 176 kts 261°
2026-04-26 14:49 -23.39929 -46.28805 4970 ft 184 kts 272°
2026-04-26 14:49 -23.39757 -46.30161 4817 ft 175 kts 277°
2026-04-26 14:49 -23.39766 -46.31477 4643 ft 169 kts 268°
2026-04-26 14:50 -23.39917 -46.32748 4539 ft 169 kts 262°
2026-04-26 14:50 -23.40137 -46.33976 4370 ft 161 kts 260°
2026-04-26 14:50 -23.40369 -46.35138 4319 ft 150 kts 262°
2026-04-26 14:50 -23.40571 -46.36210 4158 ft 140 kts 259°
2026-04-26 14:51 -23.40814 -46.37216 3995 ft 137 kts 257°
2026-04-26 14:51 -23.41089 -46.38271 3970 ft 159 kts 257°
2026-04-26 14:51 -23.41407 -46.39465 3694 ft 160 kts 256°
2026-04-26 14:51 -23.41706 -46.40572 3473 ft 150 kts 256°
2026-04-26 14:52 -23.41997 -46.41669 3296 ft 152 kts 256°
2026-04-26 14:52 -23.42300 -46.42772 3065 ft 151 kts 257°
2026-04-26 14:52 -23.42587 -46.43870 2864 ft 150 kts 256°
2026-04-26 14:52 -23.42882 -46.44952 2617 ft 148 kts 256°
2026-04-26 14:53 -23.43157 -46.46009 2482 ft 140 kts 257°
2026-04-26 14:53 -23.43409 -46.46963 2462 ft 117 kts 254°
2026-04-26 14:53 -23.43606 -46.47689 2464 ft 83 kts 253°
2026-04-26 14:53 -23.43720 -46.48104 2461 ft 25 kts 253°
2026-04-26 14:54 -23.43700 -46.48231 2463 ft 14 kts 322°
2026-04-26 14:54 -23.43610 -46.48266 2460 ft 13 kts 343°
2026-04-26 14:54 -23.43522 -46.48294 2462 ft 13 kts 343°
2026-04-26 14:54 -23.43420 -46.48327 2460 ft 15 kts 343°
2026-04-26 14:55 -23.43321 -46.48360 2464 ft 14 kts 343°
2026-04-26 14:55 -23.43227 -46.48391 2462 ft 13 kts 343°
2026-04-26 14:55 -23.43140 -46.48417 2460 ft 13 kts 344°
2026-04-26 14:55 -23.43071 -46.48397 2463 ft 10 kts 63°
2026-04-26 14:56 -23.43061 -46.48321 2460 ft 11 kts 85°
2026-04-26 14:56 -23.43054 -46.48239 2460 ft 11 kts 84°
2026-04-26 14:56 -23.43043 -46.48159 2460 ft 11 kts 63°
2026-04-26 14:56 -23.42975 -46.48140 2460 ft 11 kts 355°
2026-04-26 14:57 -23.42902 -46.48147 2467 ft 10 kts 354°
2026-04-26 14:57 -23.42855 -46.48145 2467 ft 4 kts 29°
2026-04-26 14:57 -23.42844 -46.48111 2460 ft 5 kts 83°
2026-04-26 14:57 -23.42841 -46.48073 2460 ft 5 kts 85°
2026-04-26 14:58 -23.42840 -46.48060 2460 ft 0 kts 86°